CAPE
2 3 2 2 1 1 0 1 0 0 1 1 0 0 0 0 0 0 0 0 0 0 0 0 0 0 0 0 0 0 0 0 0 0 0 0 0 0 59 572 58 173 764 1124 1063
1 2 2 3 2 1 1 1 1 1 0 0 0 0 0 0 0 0 0 0 0 0 0 0 0 0 0 0 0 0 0 0 0 0 0 0 0 0 156 287 339 280 264 209 1434
2 2 1 1 1 1 1 1 0 0 0 0 0 0 0 0 0 0 0 0 0 0 0 0 0 0 0 0 0 0 0 0 0 0 0 0 6 0 0 26 116 540 679 349 1455
1 1 1 1 1 1 0 0 0 0 0 0 0 0 0 0 0 0 0 0 0 0 0 0 0 0 0 0 0 0 0 0 0 0 0 0 0 25 13 4 0 0 0 0 2205
0 0 0 1 0 0 0 0 0 0 0 0 0 0 0 0 0 0 0 0 0 0 0 0 0 0 0 0 0 0 0 0 0 0 0 0 19 32 0 1 0 0 0 0 1233
0 0 0 0 0 0 0 0 0 0 0 0 0 0 0 0 0 0 0 0 0 0 0 0 0 0 0 0 0 0 0 0 0 0 0 1 44 20 31 3 0 0 0 0 0
0 0 0 0 0 0 0 0 0 0 0 0 0 0 0 0 0 0 0 0 0 0 0 0 0 0 0 0 0 0 0 0 0 0 0 0 1 77 48 19 11 6 0 1 21
0 0 0 0 0 0 0 0 0 0 0 0 0 0 0 0 0 0 0 0 0 0 0 0 0 0 0 0 0 0 0 0 0 0 0 26 48 1 6 0 11 0 32 502 741
0 0 0 0 0 0 0 0 0 0 0 0 0 0 0 0 0 0 0 0 0 0 0 0 0 0 0 0 0 0 0 0 1 0 0 9 15 0 0 0 46 51 499 927 694
0 0 0 0 0 0 0 0 0 0 0 0 0 0 0 0 0 0 0 0 0 0 0 0 0 0 0 0 0 0 0 0 0 0 0 0 16 116 8 0 5 744 1047 829 495
0 0 0 0 0 0 0 0 0 0 0 0 0 0 0 0 0 0 0 0 0 0 0 0 0 0 0 0 0 0 0 0 0 0 0 0 84 134 376 700 964 1040 656 377 143
0 0 0 0 0 0 0 0 0 0 0 0 0 0 0 0 0 0 0 0 0 0 0 0 0 0 0 0 0 0 0 0 0 0 0 123 106 245 374 828 1070 779 480 228 31
0 0 0 0 0 0 0 0 0 0 0 0 0 0 0 0 0 0 0 0 0 0 0 0 0 0 0 0 0 0 0 0 0 0 0 2 106 166 220 326 188 82 0 0 0
0 0 0 0 0 0 0 0 0 0 0 0 0 0 0 0 0 0 0 0 0 0 0 0 0 0 0 0 0 0 0 0 0 0 1 0 51 14 0 0 0 0 0 0 0
0 0 0 0 0 0 0 0 0 0 0 0 0 0 0 0 0 0 0 0 0 0 0 0 0 0 0 0 0 0 0 0 0 0 0 0 52 0 5 0 0 0 0 0 0
0 0 0 0 0 0 0 0 0 0 0 0 0 0 0 0 0 0 0 0 0 0 0 0 0 0 0 0 0 0 0 0 0 0 0 0 36 14 0 0 0 0 0 0 0
0 0 0 0 0 0 0 0 0 0 0 0 0 0 0 0 0 0 0 0 0 0 0 0 0 0 0 0 0 0 0 0 0 0 0 0 1 0 0 0 0 0 0 0 0
0 0 0 0 0 0 0 0 0 0 0 0 0 0 0 0 0 0 0 0 0 0 0 0 0 0 0 0 0 0 0 0 0 0 0 0 0 0 0 0 0 0 0 0 0
0 0 0 0 0 0 0 0 0 0 0 0 0 0 0 0 0 0 0 0 0 0 0 0 0 0 0 0 0 0 0 0 0 0 0 0 0 0 0 0 0 0 0 0 0
0 0 0 0 0 0 0 0 0 0 0 0 0 0 0 0 0 0 0 0 0 0 0 0 0 0 0 0 0 0 0 0 0 0 0 0 0 0 0 0 0 0 0 0 0
0 0 0 0 0 0 0 0 0 0 0 0 0 0 0 0 0 0 0 0 0 0 0 0 0 0 0 0 0 0 0 0 0 0 0 0 0 0 0 0 0 0 0 0 0
0 0 0 0 0 0 0 0 0 0 0 0 0 0 0 0 0 0 0 0 0 0 0 0 0 0 0 0 0 0 0 0 3 0 0 0 0 0 0 0 0 0 0 0 0
0 0 0 0 0 0 0 0 0 0 0 0 0 0 0 0 0 0 0 0 0 0 0 0 0 0 0 0 0 0 0 0 0 0 0 0 0 0 0 0 0 0 0 0 0
0 0 0 0 0 0 0 0 0 0 0 0 0 0 0 0 0 0 0 0 0 0 0 0 0 0 0 0 0 0 0 0 0 0 0 0 0 0 0 0 0 0 0 0 0
0 0 0 0 0 0 0 0 0 0 0 0 0 0 0 0 0 0 0 0 0 0 0 0 0 0 0 0 0 0 0 0 0 0 0 0 0 0 0 0 0 0 0 0 0
0 0 0 0 0 0 0 0 0 0 0 0 0 0 0 0 0 0 0 0 0 0 0 0 0 0 0 0 0 0 0 0 0 0 0 0 0 0 0 0 0 0 0 0 0
0 0 0 0 0 0 0 0 0 0 0 0 0 0 0 0 0 0 0 0 0 0 0 0 0 0 0 0 0 0 0 0 0 0 0 0 0 0 0 0 0 0 1 1 2
CIN
-0 -0 -0 -0 -0 -0 -0 -0 -0 -0 -0 -0 -0 -0 -0 -0 -0 -0 -0 -0 -0 -0 -0 -0 -0 -0 -0 -0 -0 -0 -0 -0 -0 -0 -0 -0 -0 -0 -149 -123 -298 -278 -112 -167 -287
-0 -0 -0 -0 -0 -0 -0 -0 -0 -0 -0 -0 -0 -0 -0 -0 -0 -0 -0 -0 -0 -0 -0 -0 -0 -0 -0 -0 -0 -0 -0 -0 -0 -0 -0 -0 -0 -0 -106 -124 -111 -132 -113 -224 -225
-0 -0 -0 -0 -0 -0 -0 -0 -0 -0 -0 -0 -0 -0 -0 -0 -0 -0 -0 -0 -0 -0 -0 -0 -0 -0 -0 -0 -0 -0 -0 -0 -0 -0 -0 -0 -40 -0 -0 -60 -107 -70 -49 -66 -158
-0 -0 -0 -0 -0 -0 -0 -0 -0 -0 -0 -0 -0 -0 -0 -0 -0 -0 -0 -0 -0 -0 -0 -0 -0 -0 -0 -0 -0 -0 -0 -0 -0 -0 -0 -0 -0 -99 -67 -44 -0 -0 -0 -0 -98
-0 -0 -0 -0 -0 -0 -0 -0 -0 -0 -0 -0 -0 -0 -0 -0 -0 -0 -0 -0 -0 -0 -0 -0 -0 -0 -0 -0 -0 -0 -0 -0 -0 -0 -0 -0 -34 -35 -0 -38 -0 -0 -0 -0 -82
-0 -0 -0 -0 -0 -0 -0 -0 -0 -0 -0 -0 -0 -0 -0 -0 -0 -0 -0 -0 -0 -0 -0 -0 -0 -0 -0 -0 -0 -0 -0 -0 -0 -0 -0 -37 -49 -54 -62 -21 -0 -0 -0 -0 -0
-0 -0 -0 -0 -0 -0 -0 -0 -0 -0 -0 -0 -0 -0 -0 -0 -0 -0 -0 -0 -0 -0 -0 -0 -0 -0 -0 -0 -0 -0 -0 -0 -0 -0 -0 -0 -86 -44 -109 -94 -112 -122 -0 -197 -335
-0 -0 -0 -0 -0 -0 -0 -0 -0 -0 -0 -0 -0 -0 -0 -0 -0 -0 -0 -0 -0 -0 -0 -0 -0 -0 -0 -0 -0 -0 -0 -0 -0 -0 -0 -126 -35 -97 -10 -0 -64 -0 -82 -266 -326
-0 -0 -0 -0 -0 -0 -0 -0 -0 -0 -0 -0 -0 -0 -0 -0 -0 -0 -0 -0 -0 -0 -0 -0 -0 -0 -0 -0 -0 -0 -0 -0 -32 -0 -0 -95 -52 -0 -0 -0 -91 -42 -222 -248 -299
-0 -0 -0 -0 -0 -0 -0 -0 -0 -0 -0 -0 -0 -0 -0 -0 -0 -0 -0 -0 -0 -0 -0 -0 -0 -0 -0 -0 -0 -0 -0 -0 -0 -0 -0 -0 -223 -396 -430 -0 -161 -175 -162 -208 -384
-0 -0 -0 -0 -0 -0 -0 -0 -0 -0 -0 -0 -0 -0 -0 -0 -0 -0 -0 -0 -0 -0 -0 -0 -0 -0 -0 -0 -0 -0 -0 -0 -0 -0 -0 -0 -357 -499 -341 -193 -119 -119 -252 -329 -426
-0 -0 -0 -0 -0 -0 -0 -0 -0 -0 -0 -0 -0 -0 -0 -0 -0 -0 -0 -0 -0 -0 -0 -0 -0 -0 -0 -0 -0 -0 -0 -0 -0 -0 -0 -228 -341 -347 -312 -188 -112 -168 -256 -331 -506
-0 -0 -0 -0 -0 -0 -0 -0 -0 -0 -0 -0 -0 -0 -0 -0 -0 -0 -0 -0 -0 -0 -0 -0 -0 -0 -0 -0 -0 -0 -0 -0 -0 -0 -0 -49 -217 -248 -222 -233 -375 -172 -0 -0 -0
-0 -0 -0 -0 -0 -0 -0 -0 -0 -0 -0 -0 -0 -0 -0 -0 -0 -0 -0 -0 -0 -0 -0 -0 -0 -0 -0 -0 -0 -0 -0 -0 -0 -0 -17 -0 -75 -280 -0 -0 -0 -0 -0 -0 -0
-0 -0 -0 -0 -0 -0 -0 -0 -0 -0 -0 -0 -0 -0 -0 -0 -0 -0 -0 -0 -0 -0 -0 -0 -0 -0 -0 -0 -0 -0 -0 -0 -0 -0 -0 -0 -51 -0 -60 -0 -0 -0 -0 -0 -0
-0 -0 -0 -0 -0 -0 -0 -0 -0 -0 -0 -0 -0 -0 -0 -0 -0 -0 -0 -0 -0 -0 -0 -0 -0 -0 -0 -0 -0 -0 -0 -0 -0 -0 -0 -0 -104 -214 -0 -0 -0 -0 -0 -0 -0
-0 -0 -0 -0 -0 -0 -0 -0 -0 -0 -0 -0 -0 -0 -0 -0 -0 -0 -0 -0 -0 -0 -0 -0 -0 -0 -0 -0 -0 -0 -0 -0 -0 -0 -0 -0 -42 -0 -0 -0 -0 -0 -0 -0 -0
-0 -0 -0 -0 -0 -0 -0 -0 -0 -0 -0 -0 -0 -0 -0 -0 -0 -0 -0 -0 -0 -0 -0 -0 -0 -0 -0 -0 -0 -0 -0 -0 -0 -0 -0 -0 -0 -0 -0 -0 -0 -0 -0 -0 -0
-0 -0 -0 -0 -0 -0 -0 -0 -0 -0 -0 -0 -0 -0 -0 -0 -0 -0 -0 -0 -0 -0 -0 -0 -0 -0 -0 -0 -0 -0 -0 -0 -0 -0 -0 -0 -0 -0 -0 -0 -0 -0 -0 -0 -0
-0 -0 -0 -0 -0 -0 -0 -0 -0 -0 -0 -0 -0 -0 -0 -0 -0 -0 -0 -0 -0 -0 -0 -0 -0 -0 -0 -0 -0 -0 -0 -0 -0 -0 -0 -0 -0 -0 -0 -0 -0 -0 -0 -0 -0
-0 -0 -0 -0 -0 -0 -0 -0 -0 -0 -0 -0 -0 -0 -0 -0 -0 -0 -0 -0 -0 -0 -0 -0 -0 -0 -0 -0 -0 -0 -0 -0 -0 -0 -0 -0 -0 -0 -0 -0 -0 -0 -0 -0 -0
-0 -0 -0 -0 -0 -0 -0 -0 -0 -0 -0 -0 -0 -0 -0 -0 -0 -0 -0 -0 -0 -0 -0 -0 -0 -0 -0 -0 -0 -0 -0 -0 -0 -0 -0 -0 -0 -0 -0 -0 -0 -0 -0 -0 -0
-0 -0 -0 -0 -0 -0 -0 -0 -0 -0 -0 -0 -0 -0 -0 -0 -0 -0 -0 -0 -0 -0 -0 -0 -0 -0 -0 -0 -0 -0 -0 -0 -0 -0 -0 -0 -0 -0 -0 -0 -0 -0 -0 -0 -0
-0 -0 -0 -0 -0 -0 -0 -0 -0 -0 -0 -0 -0 -0 -0 -0 -0 -0 -0 -0 -0 -0 -0 -0 -0 -0 -0 -0 -0 -0 -0 -0 -0 -0 -0 -0 -0 -0 -0 -0 -0 -0 -0 -0 -0
-0 -0 -0 -0 -0 -0 -0 -0 -0 -0 -0 -0 -0 -0 -0 -0 -0 -0 -0 -0 -0 -0 -0 -0 -0 -0 -0 -0 -0 -0 -0 -0 -0 -0 -0 -0 -0 -0 -0 -0 -0 -0 -0 -0 -0
-0 -0 -0 -0 -0 -0 -0 -0 -0 -0 -0 -0 -0 -0 -0 -0 -0 -0 -0 -0 -0 -0 -0 -0 -0 -0 -0 -0 -0 -0 -0 -0 -0 -0 -0 -0 -0 -0 -0 -0 -0 -0 -0 -0 -0
-0 -0 -0 -0 -0 -0 -0 -0 -0 -0 -0 -0 -0 -0 -0 -0 -0 -0 -0 -0 -0 -0 -0 -0 -0 -0 -0 -0 -0 -0 -0 -0 -0 -0 -0 -0 -0 -0 -0 -0 -0 -0 -0 -0 -0
Wind_Speed
11 10 9 9 9 9 8 10 10 10 10 10 10 10 10 10 10 2 4 1 3 6 3 2 1 2 1 3 2 2 3 5 4 3 3 3 6 5 3 1 3 1 1 6 10
12 11 10 10 9 8 9 9 9 9 9 9 9 9 9 9 3 3 3 6 5 4 3 3 2 1 3 3 2 3 4 6 2 3 2 5 4 3 2 3 1 2 5 7 11
14 13 12 11 10 9 9 9 9 9 8 8 9 9 8 6 3 3 4 9 8 3 3 2 2 1 2 1 3 4 6 4 4 5 2 4 3 4 3 3 6 5 7 4 7
16 14 13 12 11 10 10 9 9 8 8 8 8 9 9 2 3 1 4 10 7 3 2 2 2 3 2 5 2 4 4 4 3 6 5 2 4 9 4 0 5 7 4 9 6
17 17 15 13 12 10 10 9 9 9 8 7 8 9 2 1 2 3 8 9 4 2 2 3 2 3 4 2 3 4 3 5 5 5 6 5 11 7 10 10 13 8 5 2 8
17 17 16 15 14 12 10 9 8 8 7 6 7 9 2 3 1 4 8 6 5 3 2 3 2 1 3 2 3 1 2 4 3 4 2 8 10 8 14 6 11 14 6 9 8
17 17 17 16 15 14 12 10 9 7 6 4 5 3 1 1 2 4 5 2 3 2 2 2 2 0 2 3 1 0 3 2 1 2 2 7 8 16 16 13 15 15 8 14 16
18 17 16 16 15 15 14 12 10 7 5 2 2 1 3 1 3 3 4 3 2 2 0 2 2 2 1 0 1 1 1 4 3 3 3 5 6 9 10 10 23 14 11 11 17
19 18 17 16 15 15 15 13 5 4 3 3 1 2 2 1 3 1 3 1 6 3 2 4 1 3 1 2 3 3 2 1 3 2 1 3 6 20 18 10 20 16 13 14 15
21 20 18 16 14 12 13 2 7 8 2 3 3 2 1 4 3 1 2 1 3 7 5 1 2 2 2 2 4 3 2 2 3 2 5 9 12 16 19 5 5 17 16 16 20
23 22 20 17 14 10 3 2 1 1 2 3 3 3 5 4 2 1 3 4 2 2 2 2 4 6 4 2 1 3 3 4 5 3 6 12 15 18 20 16 17 18 19 18 19
24 23 22 19 16 8 3 3 4 1 5 4 5 6 6 2 1 1 4 3 1 2 2 2 4 3 4 2 6 5 4 6 4 5 9 18 19 21 19 17 17 19 18 18 17
25 24 23 21 17 2 1 2 5 4 1 5 4 4 1 6 2 1 5 2 1 1 2 1 3 2 3 3 6 4 6 4 5 7 8 9 17 16 15 18 19 20 18 18 18
26 25 23 25 2 1 2 3 4 5 2 2 2 1 4 3 2 1 2 0 2 2 3 1 4 4 4 4 4 2 5 2 1 5 5 3 6 11 10 15 18 16 16 16 17
28 25 21 9 2 2 3 4 6 3 1 2 2 3 2 2 2 4 3 0 2 3 3 3 4 4 5 4 2 2 0 2 2 3 3 5 5 5 2 11 12 12 14 15 15
30 27 18 2 2 3 4 2 1 1 3 1 2 4 4 1 3 1 4 7 1 3 4 2 2 3 2 2 4 6 1 4 3 1 6 5 2 4 2 2 7 8 10 11 12
32 29 8 2 1 5 3 2 1 3 1 2 2 3 3 2 3 3 4 6 3 1 4 3 3 3 4 1 3 2 0 3 4 4 2 2 1 6 5 6 6 7 8 9 9
35 22 2 3 4 6 1 3 4 2 4 1 1 4 3 2 2 2 4 4 5 2 3 2 4 6 8 3 2 4 1 3 5 4 3 1 4 6 9 8 7 6 2 5 7
27 3 1 4 3 2 4 2 4 4 2 2 2 3 2 2 3 3 3 3 2 2 1 1 2 1 6 4 3 4 2 2 5 1 4 5 4 6 9 8 5 4 3 4 7
7 4 3 6 3 2 3 3 4 3 4 1 1 0 3 2 3 2 3 1 2 2 2 3 1 2 3 1 8 2 5 3 1 3 4 4 4 4 15 11 4 4 6 7 8
3 1 3 5 1 3 2 4 4 5 5 1 2 3 3 3 3 2 3 2 2 3 2 2 1 2 2 6 4 0 2 5 3 3 3 2 2 8 16 12 6 5 6 7 9
4 1 4 2 1 1 2 3 3 4 1 1 3 3 3 2 3 2 3 2 5 1 2 2 3 1 2 1 2 4 3 2 2 3 1 3 2 3 10 8 3 4 5 6 8
6 4 2 2 1 0 2 3 3 3 3 1 2 2 3 3 4 2 3 3 2 2 3 4 2 1 2 3 2 3 3 3 4 1 4 3 2 5 6 4 1 4 7 7 9
3 4 4 4 2 2 4 2 2 1 2 3 3 3 3 3 4 5 4 3 3 4 7 5 3 3 3 2 2 1 2 1 1 1 1 2 2 8 8 4 2 6 8 9 10
4 2 2 4 3 2 2 2 3 1 2 2 3 2 5 4 2 3 3 4 4 2 4 2 3 2 2 1 1 1 3 3 2 1 3 2 1 5 8 2 3 6 8 9 11
3 4 1 3 4 3 2 2 2 1 3 1 5 3 2 4 2 7 6 3 2 3 3 2 4 2 2 2 1 2 3 5 4 4 5 3 3 4 3 1 4 6 7 9 12
1 1 3 1 3 3 1 2 1 3 4 3 9 6 6 5 6 6 4 6 3 3 4 2 5 3 2 1 1 5 4 2 2 2 1 2 4 7 4 3 6 7 6 10 11
Wind_Direction
357 347 339 328 323 318 316 311 312 312 317 323 327 325 326 325 309 213 246 155 180 202 231 307 34 69 126 115 100 167 175 185 174 194 356 28 36 58 345 120 112 191 144 95 138
358 349 342 334 324 318 313 309 310 312 317 322 320 320 320 332 304 260 256 180 205 294 113 120 103 87 122 129 116 184 205 196 176 144 30 353 335 42 325 7 355 236 232 116 154
357 351 345 338 330 324 317 312 310 310 313 314 311 310 309 312 252 34 352 193 214 217 87 101 116 74 124 171 154 153 209 197 176 176 245 17 87 350 67 15 343 323 289 280 187
359 353 347 341 333 326 318 313 309 307 307 307 310 309 311 270 80 27 335 163 179 159 104 85 98 107 129 171 154 199 192 193 159 203 184 149 106 302 303 45 332 16 8 323 236
359 354 347 341 334 326 318 312 308 306 308 315 314 313 267 229 67 102 104 134 143 141 136 128 125 137 136 155 158 220 183 213 257 235 257 170 188 184 224 299 307 295 333 316 254
358 354 347 340 334 327 317 309 300 298 303 312 317 312 312 94 70 152 136 146 152 140 144 164 142 148 102 136 205 309 254 248 260 279 226 199 211 190 234 269 280 284 344 344 19
358 352 347 340 334 327 317 309 301 295 294 305 328 348 15 84 163 171 179 172 161 165 117 180 160 263 142 146 340 77 266 243 203 272 242 168 176 209 205 196 219 245 235 45 22
356 349 344 341 333 325 315 307 291 284 285 287 317 304 262 206 168 215 174 182 164 215 24 99 175 79 285 28 80 100 125 229 123 279 41 210 249 353 316 211 213 205 224 82 65
352 347 342 339 334 325 321 316 272 219 213 170 211 342 47 265 235 106 196 128 126 99 155 66 117 53 149 114 141 44 128 120 136 62 35 224 6 5 353 260 194 196 71 64 60
348 343 339 336 333 324 324 6 113 130 137 195 242 237 255 331 302 153 169 238 118 123 111 150 59 180 136 212 209 170 165 171 273 167 357 83 41 15 22 19 47 83 79 76 66
343 340 337 333 329 323 293 221 277 151 179 247 280 277 288 293 279 187 156 140 110 89 194 64 239 240 250 205 208 178 199 251 264 346 83 74 54 28 49 68 78 75 74 67 68
340 338 334 331 326 326 221 118 139 8 305 243 254 260 261 260 299 267 165 175 152 179 147 202 261 288 181 164 189 191 206 237 270 104 102 77 52 42 50 69 71 78 71 71 64
337 338 333 330 321 246 323 171 121 139 300 298 223 236 206 175 185 255 169 131 147 148 201 239 353 186 260 159 178 211 236 222 261 127 99 135 59 49 53 60 69 66 65 62 59
335 338 335 328 264 343 158 105 297 200 352 274 227 214 155 186 90 16 176 130 135 43 149 41 339 107 127 109 190 178 204 215 209 203 181 316 133 57 62 54 54 58 64 61 58
332 336 334 321 334 185 95 337 130 211 161 145 183 100 104 175 125 60 22 122 51 55 257 64 37 58 66 4 256 79 26 66 77 99 205 45 113 87 66 55 47 47 64 65 59
332 332 334 144 236 287 336 125 221 243 231 151 163 165 144 60 62 54 49 44 59 88 33 42 312 27 12 68 35 141 88 61 68 127 235 17 247 118 43 78 73 64 56 52 49
332 327 309 271 35 341 320 88 184 226 352 144 173 174 179 100 71 41 48 37 30 183 32 354 40 3 22 216 83 150 150 276 238 219 320 332 104 70 106 85 109 76 52 50 41
331 321 185 261 313 338 83 81 220 236 237 80 88 110 148 133 75 86 107 100 58 40 95 9 185 9 354 28 353 40 273 265 280 255 144 112 153 124 127 122 111 92 89 43 28
324 334 278 328 269 254 91 160 239 218 309 309 131 122 110 118 130 119 68 115 49 32 115 169 176 7 40 18 306 135 203 46 114 106 223 113 116 161 162 152 136 101 79 42 23
323 323 11 335 121 70 102 227 251 240 322 317 140 203 149 124 133 133 151 113 116 28 257 151 250 34 339 260 64 352 117 205 166 209 240 177 208 195 184 175 138 64 25 12 4
327 18 6 342 282 67 178 234 273 257 235 257 157 121 90 110 95 101 127 88 21 73 88 125 290 106 285 23 342 245 152 65 83 329 273 245 183 341 180 166 131 58 17 359 354
339 344 12 327 71 3 177 208 288 289 57 117 97 91 95 83 94 117 137 48 359 17 58 35 89 311 62 19 9 48 56 30 253 183 51 319 104 51 135 139 117 34 7 359 351
348 295 337 281 148 318 314 276 256 312 18 58 103 45 52 108 114 104 101 32 14 70 133 167 57 129 97 179 151 50 39 86 89 50 197 271 99 148 147 148 122 337 355 356 349
332 327 334 48 35 58 1 307 260 77 88 55 105 118 111 91 33 136 132 40 49 83 85 97 111 247 260 52 356 203 342 53 275 211 194 265 149 193 194 205 325 348 355 351 351
3 51 35 341 64 13 241 293 289 218 68 39 92 90 137 123 105 128 133 140 83 105 68 60 132 181 163 328 232 313 311 318 244 47 252 73 278 177 183 223 338 347 352 348 349
353 342 359 286 289 287 170 201 267 158 326 97 131 115 104 143 175 185 152 193 169 103 82 44 136 170 189 142 342 232 136 99 94 115 105 137 125 152 151 296 319 344 343 343 343
60 160 282 312 305 267 181 292 42 151 53 26 133 115 103 103 100 83 77 80 101 157 124 113 144 153 226 60 270 246 203 180 133 177 166 261 83 165 198 270 331 338 348 343 340